CEB903 RPLL-RPVE

Flight info

Callsign CEB903
Flight time 0h 38m
Altitude 23000
Route VERDE2R VERDE W24 TAPER TAPER7A
Aircraft A320/M-SDE3FGHIRWY/LB1

Departure

Time 2026-04-24 10:06
Airport Ninoy Aquino International Airport (RPLL)

Arrival

Time 2026-04-24 10:44
Airport Godofredo P. Ramos Airport (RPVE)
Time Latitude Longitude Altitude Speed Heading
2026-04-24 09:34 14.52396 121.00771 84 ft 0 kts 44°
2026-04-24 09:56 14.52390 121.00764 84 ft 2 kts 44°
2026-04-24 09:56 14.52380 121.00754 84 ft 2 kts 44°
2026-04-24 09:56 14.52370 121.00744 84 ft 2 kts 44°
2026-04-24 09:56 14.52360 121.00734 84 ft 2 kts 44°
2026-04-24 09:57 14.52350 121.00724 84 ft 2 kts 44°
2026-04-24 09:57 14.52340 121.00714 84 ft 2 kts 44°
2026-04-24 09:57 14.52334 121.00708 84 ft 1 kts 44°
2026-04-24 09:57 14.52323 121.00702 84 ft 2 kts 359°
2026-04-24 09:58 14.52311 121.00706 84 ft 0 kts 320°
2026-04-24 09:58 14.52307 121.00710 84 ft 1 kts 313°
2026-04-24 09:58 14.52305 121.00712 84 ft 0 kts 314°
2026-04-24 10:01 14.52307 121.00710 84 ft 2 kts 314°
2026-04-24 10:02 14.52329 121.00687 84 ft 5 kts 314°
2026-04-24 10:02 14.52356 121.00658 84 ft 6 kts 316°
2026-04-24 10:02 14.52389 121.00626 84 ft 7 kts 316°
2026-04-24 10:02 14.52418 121.00595 84 ft 6 kts 314°
2026-04-24 10:03 14.52452 121.00561 84 ft 7 kts 315°
2026-04-24 10:03 14.52483 121.00528 84 ft 5 kts 307°
2026-04-24 10:03 14.52478 121.00493 84 ft 5 kts 234°
2026-04-24 10:03 14.52448 121.00462 84 ft 7 kts 224°
2026-04-24 10:04 14.52413 121.00426 84 ft 8 kts 225°
2026-04-24 10:04 14.52376 121.00400 84 ft 6 kts 177°
2026-04-24 10:04 14.52342 121.00428 84 ft 7 kts 132°
2026-04-24 10:04 14.52306 121.00465 84 ft 8 kts 135°
2026-04-24 10:05 14.52261 121.00511 84 ft 17 kts 135°
2026-04-24 10:05 14.52039 121.00741 84 ft 88 kts 134°
2026-04-24 10:05 14.51469 121.01332 104 ft 153 kts 131°
2026-04-24 10:05 14.50767 121.02084 667 ft 163 kts 131°
2026-04-24 10:06 14.50023 121.02856 1381 ft 166 kts 131°
2026-04-24 10:06 14.48472 121.04440 2671 ft 183 kts 132°
2026-04-24 10:06 14.47617 121.05365 3115 ft 200 kts 132°
2026-04-24 10:07 14.46684 121.06389 3510 ft 222 kts 133°
2026-04-24 10:07 14.45608 121.07498 3969 ft 243 kts 134°
2026-04-24 10:07 14.44442 121.08656 4472 ft 263 kts 139°
2026-04-24 10:07 14.42902 121.09497 5049 ft 281 kts 168°
2026-04-24 10:08 14.41086 121.09480 5901 ft 284 kts 193°
2026-04-24 10:08 14.39319 121.09038 6841 ft 285 kts 197°
2026-04-24 10:08 14.37554 121.08549 7709 ft 289 kts 197°
2026-04-24 10:08 14.35727 121.08057 8593 ft 292 kts 196°
2026-04-24 10:09 14.33896 121.07586 9457 ft 295 kts 196°
2026-04-24 10:09 14.32069 121.07130 10292 ft 298 kts 196°
2026-04-24 10:09 14.30200 121.06660 10979 ft 306 kts 198°
2026-04-24 10:09 14.28279 121.05981 11408 ft 321 kts 206°
2026-04-24 10:10 14.26426 121.04995 11791 ft 336 kts 213°
2026-04-24 10:10 14.24479 121.03909 12191 ft 353 kts 202°
2026-04-24 10:10 14.22207 121.03545 12802 ft 365 kts 181°
2026-04-24 10:10 14.19871 121.03677 13607 ft 367 kts 177°
2026-04-24 10:11 14.17475 121.03858 14302 ft 372 kts 178°
2026-04-24 10:11 14.15085 121.03985 14959 ft 376 kts 179°
2026-04-24 10:11 14.12651 121.04052 15626 ft 380 kts 180°
2026-04-24 10:11 14.10200 121.04076 16280 ft 384 kts 181°
2026-04-24 10:12 14.07703 121.04071 16923 ft 388 kts 181°
2026-04-24 10:12 14.05195 121.04049 17552 ft 392 kts 181°
2026-04-24 10:12 14.02647 121.04018 18173 ft 396 kts 181°
2026-04-24 10:12 14.00070 121.03980 18783 ft 399 kts 181°
2026-04-24 10:13 13.97531 121.03941 19367 ft 403 kts 181°
2026-04-24 10:13 13.94915 121.03899 19949 ft 406 kts 181°
2026-04-24 10:13 13.92272 121.03856 20526 ft 409 kts 181°
2026-04-24 10:13 13.89666 121.03813 21074 ft 412 kts 181°
2026-04-24 10:14 13.87003 121.03770 21617 ft 416 kts 180°
2026-04-24 10:14 13.84297 121.03725 22154 ft 419 kts 180°
2026-04-24 10:14 13.81614 121.03682 22662 ft 422 kts 180°
2026-04-24 10:14 13.78951 121.03638 22954 ft 424 kts 180°
2026-04-24 10:15 13.76171 121.03592 23012 ft 423 kts 180°
2026-04-24 10:15 13.73464 121.03548 23020 ft 423 kts 180°
2026-04-24 10:15 13.70754 121.03502 23024 ft 423 kts 180°
2026-04-24 10:15 13.68015 121.03455 23026 ft 423 kts 180°
2026-04-24 10:16 13.65287 121.03409 23026 ft 423 kts 180°
2026-04-24 10:16 13.62618 121.03363 23027 ft 423 kts 180°
2026-04-24 10:16 13.59900 121.03316 23027 ft 423 kts 180°
2026-04-24 10:16 13.57146 121.03270 23027 ft 423 kts 180°
2026-04-24 10:17 13.54448 121.03230 23026 ft 423 kts 179°
2026-04-24 10:17 13.51727 121.03502 23022 ft 422 kts 167°
2026-04-24 10:17 13.49149 121.04309 23017 ft 422 kts 156°
2026-04-24 10:17 13.46765 121.05623 23005 ft 424 kts 146°
2026-04-24 10:18 13.44481 121.07213 22979 ft 424 kts 143°
2026-04-24 10:18 13.42236 121.08844 22955 ft 424 kts 143°
2026-04-24 10:18 13.39984 121.10471 22936 ft 423 kts 144°
2026-04-24 10:18 13.37773 121.12067 22925 ft 416 kts 147°
2026-04-24 10:19 13.35557 121.13629 22914 ft 414 kts 147°
2026-04-24 10:19 13.33318 121.15199 22906 ft 414 kts 147°
2026-04-24 10:19 13.31108 121.16748 22901 ft 414 kts 147°
2026-04-24 10:19 13.28891 121.18303 22898 ft 415 kts 147°
2026-04-24 10:20 13.26671 121.19859 22896 ft 415 kts 147°
2026-04-24 10:20 13.24461 121.21407 22894 ft 415 kts 147°
2026-04-24 10:20 13.22227 121.22974 22894 ft 416 kts 147°
2026-04-24 10:20 13.20032 121.24512 22893 ft 416 kts 147°
2026-04-24 10:21 13.17812 121.26067 22893 ft 416 kts 147°
2026-04-24 10:21 13.15586 121.27628 22893 ft 416 kts 147°
2026-04-24 10:21 13.13345 121.29197 22893 ft 416 kts 147°
2026-04-24 10:21 13.11159 121.30728 22893 ft 416 kts 147°
2026-04-24 10:22 13.08902 121.32308 22893 ft 416 kts 147°
2026-04-24 10:22 13.06699 121.33851 22893 ft 416 kts 147°
2026-04-24 10:22 13.04459 121.35418 22893 ft 417 kts 147°
2026-04-24 10:22 13.02223 121.36983 22893 ft 417 kts 147°
2026-04-24 10:23 12.99995 121.38541 22893 ft 417 kts 147°
2026-04-24 10:23 12.97773 121.40095 22893 ft 417 kts 147°
2026-04-24 10:23 12.95539 121.41657 22893 ft 417 kts 147°
2026-04-24 10:23 12.93301 121.43223 22893 ft 417 kts 147°
2026-04-24 10:24 12.91074 121.44781 22893 ft 417 kts 147°
2026-04-24 10:24 12.89221 121.46076 22893 ft 417 kts 147°
2026-04-24 10:24 12.86979 121.47635 22893 ft 417 kts 147°
2026-04-24 10:24 12.84769 121.49170 22874 ft 415 kts 147°
2026-04-24 10:25 12.82531 121.50727 22484 ft 413 kts 147°
2026-04-24 10:25 12.80322 121.52265 21602 ft 419 kts 147°
2026-04-24 10:25 12.78063 121.53839 20631 ft 427 kts 147°
2026-04-24 10:25 12.75774 121.55435 19881 ft 427 kts 147°
2026-04-24 10:26 12.73488 121.57031 19287 ft 423 kts 147°
2026-04-24 10:26 12.71237 121.58601 18702 ft 419 kts 147°
2026-04-24 10:26 12.69031 121.60141 18108 ft 416 kts 147°
2026-04-24 10:26 12.66790 121.61704 17500 ft 413 kts 147°
2026-04-24 10:27 12.64600 121.63231 16907 ft 409 kts 147°
2026-04-24 10:27 12.62425 121.64748 16314 ft 406 kts 147°
2026-04-24 10:27 12.60253 121.66267 15716 ft 403 kts 147°
2026-04-24 10:27 12.58112 121.67773 15123 ft 400 kts 147°
2026-04-24 10:28 12.55998 121.69256 14537 ft 397 kts 147°
2026-04-24 10:28 12.53890 121.70729 13952 ft 394 kts 147°
2026-04-24 10:28 12.51797 121.72189 13369 ft 391 kts 147°
2026-04-24 10:28 12.49709 121.73644 12813 ft 387 kts 147°
2026-04-24 10:29 12.47657 121.75072 12563 ft 375 kts 147°
2026-04-24 10:29 12.45668 121.76455 12324 ft 364 kts 147°
2026-04-24 10:29 12.43755 121.77785 11928 ft 358 kts 147°
2026-04-24 10:29 12.41837 121.79117 11559 ft 354 kts 147°
2026-04-24 10:30 12.39942 121.80433 11157 ft 352 kts 147°
2026-04-24 10:30 12.38045 121.81667 10724 ft 349 kts 155°
2026-04-24 10:30 12.35919 121.82329 10361 ft 340 kts 176°
2026-04-24 10:30 12.33777 121.82238 10265 ft 322 kts 192°
2026-04-24 10:31 12.31769 121.81827 10174 ft 309 kts 194°
2026-04-24 10:31 12.29842 121.81383 10088 ft 296 kts 195°
2026-04-24 10:31 12.28004 121.80959 10016 ft 284 kts 195°
2026-04-24 10:31 12.26240 121.80557 9722 ft 283 kts 194°
2026-04-24 10:32 12.24466 121.80158 9409 ft 282 kts 194°
2026-04-24 10:32 12.22663 121.79759 9099 ft 281 kts 194°
2026-04-24 10:32 12.20894 121.79371 8799 ft 279 kts 194°
2026-04-24 10:32 12.19123 121.78986 8501 ft 277 kts 194°
2026-04-24 10:33 12.17370 121.78605 8207 ft 274 kts 194°
2026-04-24 10:33 12.15649 121.78233 7919 ft 271 kts 194°
2026-04-24 10:33 12.13926 121.77862 7633 ft 268 kts 194°
2026-04-24 10:33 12.12251 121.77499 7356 ft 265 kts 194°
2026-04-24 10:34 12.10567 121.77137 7077 ft 262 kts 193°
2026-04-24 10:34 12.08908 121.76777 6803 ft 258 kts 194°
2026-04-24 10:34 12.07303 121.76425 6538 ft 255 kts 194°
2026-04-24 10:34 12.05696 121.76073 6275 ft 251 kts 194°
2026-04-24 10:35 12.04111 121.75729 6016 ft 248 kts 193°
2026-04-24 10:35 12.02557 121.75393 5761 ft 244 kts 193°
2026-04-24 10:35 12.01014 121.75060 5510 ft 241 kts 193°
2026-04-24 10:35 11.99490 121.74730 5262 ft 238 kts 193°
2026-04-24 10:36 11.97977 121.74402 5016 ft 235 kts 193°
2026-04-24 10:36 11.96500 121.74084 4776 ft 232 kts 193°
2026-04-24 10:36 11.95034 121.73770 4540 ft 229 kts 193°
2026-04-24 10:36 11.93589 121.73457 4306 ft 226 kts 193°
2026-04-24 10:37 11.92179 121.73175 4073 ft 223 kts 186°
2026-04-24 10:37 11.90747 121.73242 3935 ft 216 kts 167°
2026-04-24 10:37 11.89521 121.73694 4009 ft 200 kts 155°
2026-04-24 10:37 11.88389 121.74271 3923 ft 186 kts 152°
2026-04-24 10:38 11.87384 121.74811 3884 ft 168 kts 152°
2026-04-24 10:38 11.86439 121.75318 3731 ft 164 kts 152°
2026-04-24 10:38 11.85484 121.75826 3526 ft 164 kts 152°
2026-04-24 10:38 11.84583 121.76384 3321 ft 163 kts 135°
2026-04-24 10:39 11.84007 121.77266 3114 ft 159 kts 105°
2026-04-24 10:39 11.83923 121.78294 2987 ft 159 kts 77°
2026-04-24 10:39 11.84270 121.79265 2931 ft 155 kts 61°
2026-04-24 10:39 11.84736 121.80170 2893 ft 153 kts 59°
2026-04-24 10:40 11.85213 121.81062 2826 ft 153 kts 59°
2026-04-24 10:40 11.85683 121.81953 2702 ft 153 kts 59°
2026-04-24 10:40 11.86148 121.82852 2556 ft 152 kts 60°
2026-04-24 10:40 11.86601 121.83741 2403 ft 151 kts 60°
2026-04-24 10:41 11.87056 121.84640 2292 ft 151 kts 60°
2026-04-24 10:41 11.87504 121.85529 2125 ft 151 kts 60°
2026-04-24 10:41 11.87955 121.86425 1937 ft 150 kts 60°
2026-04-24 10:41 11.88377 121.87269 1750 ft 139 kts 61°
2026-04-24 10:42 11.88784 121.88085 1570 ft 137 kts 60°
2026-04-24 10:42 11.89185 121.88886 1402 ft 136 kts 60°
2026-04-24 10:42 11.89588 121.89688 1236 ft 136 kts 60°
2026-04-24 10:42 11.89993 121.90485 1066 ft 135 kts 60°
2026-04-24 10:43 11.90386 121.91285 875 ft 135 kts 62°
2026-04-24 10:43 11.90761 121.92094 665 ft 134 kts 61°
2026-04-24 10:43 11.91171 121.92875 479 ft 133 kts 60°
2026-04-24 10:43 11.91576 121.93662 384 ft 134 kts 61°
2026-04-24 10:44 11.91967 121.94460 212 ft 133 kts 60°
2026-04-24 10:44 11.92365 121.95233 22 ft 131 kts 62°
2026-04-24 10:44 11.92676 121.95847 14 ft 65 kts 64°
2026-04-24 10:44 11.92787 121.96068 14 ft 14 kts 62°
2026-04-24 10:45 11.92829 121.96153 14 ft 14 kts 65°
2026-04-24 10:45 11.92871 121.96238 14 ft 14 kts 62°
2026-04-24 10:45 11.92913 121.96321 14 ft 14 kts 62°
2026-04-24 10:45 11.92949 121.96393 14 ft 10 kts 71°
2026-04-24 10:46 11.92940 121.96458 14 ft 10 kts 127°
2026-04-24 10:46 11.92882 121.96500 14 ft 11 kts 153°
2026-04-24 10:46 11.92841 121.96521 14 ft 5 kts 153°
2026-04-24 10:46 11.92806 121.96530 14 ft 6 kts 186°
2026-04-24 10:47 11.92769 121.96507 14 ft 7 kts 229°
2026-04-24 10:47 11.92746 121.96463 14 ft 8 kts 243°
2026-04-24 10:47 11.92730 121.96435 14 ft 1 kts 215°
2026-04-24 10:47 11.92722 121.96435 14 ft 2 kts 166°
2026-04-24 10:48 11.92705 121.96439 14 ft 1 kts 167°
2026-04-24 10:48 11.92699 121.96441 14 ft 1 kts 159°
2026-04-24 10:48 11.92688 121.96446 14 ft 2 kts 155°
2026-04-24 10:48 11.92687 121.96446 14 ft 0 kts 155°